Akron, OH

4:38 PM EST on December 06, 2019 (GMT -0500)
Akron Fulton International

Weather History for KAKR - November, 2019

Change the Weather History Date:

Thursday, November 14, 2019

  Actual Average (KCAK) Record (KCAK)
Temperature  
Mean Temperature 34 °F -  
Max Temperature 39 °F 48 °F 73 °F (1909)
Min Temperature 28 °F 31 °F 11 °F (1986)
Degree Days  
Heating Degree Days 32    
Moisture  
Dew Point 21 °F    
Average Humidity 63    
Maximum Humidity 78    
Minimum Humidity 53    
Precipitation  
Precipitation 0.00 in - - ()
Sea Level Pressure  
Sea Level Pressure 30.22 in    
Wind  
Wind Speed 8 mph (SW)    
Max Wind Speed 13 mph    
Max Gust Speed -    
Visibility 9 miles    
Events Snow    
Averages and records for this station are not official NWS values.
T = Trace of Precipitation, MM = Missing Value Source: NWS Daily Summary

Daily Weather History Graph

Daily Weather History Graph

Search for Another Location

Airport or City:

Astronomy

Nov. 14, 2019 Rise Set
Actual Time 7:11 AM EST 5:08 PM EST
Civil Twilight 6:42 AM EST 5:37 PM EST
Nautical Twilight 6:09 AM EST 6:10 PM EST
Astronomical Twilight 5:36 AM EST 6:43 PM EST
Moon 6:52 PM EST (11/14) 9:06 AM EST (11/14)
Length of Visible Light 10h 55m
Length of Day
9h 56m
Waning Gibbous, 95% of the Moon is Illuminated
Nov 14
Waning Gibbous
Nov 19
Last Quarter
Nov 26
New
Dec 4
First Quarter
Dec 12
Full

Hourly Weather History & Observations

Time (EST) Temp. Windchill Dew Point Humidity Pressure Visibility Wind Dir Wind Speed Gust Speed Precip Events Conditions
12:54 AM 28.9 °F 20.4 °F 16.0 °F 58% 30.20 in 10.0 mi South 9.2 mph - N/A   Overcast
1:54 AM 28.9 °F 20.4 °F 17.1 °F 61% 30.20 in 10.0 mi SSW 9.2 mph - N/A   Overcast
2:49 AM 28.4 °F 21.2 °F 19.4 °F 69% 30.17 in 6.0 mi West 6.9 mph - 0.00 in Snow Light Snow
2:54 AM 28.9 °F 21.1 °F 19.9 °F 69% 30.21 in 3.0 mi WSW 8.1 mph - 0.00 in Snow Light Snow
2:58 AM 28.0 °F 21.7 °F 19.9 °F 72% 30.17 in 1.8 mi WSW 5.8 mph - 0.00 in Snow Light Snow
3:20 AM 28.0 °F - 21.9 °F 78% 30.16 in 9.0 mi Calm Calm - 0.00 in   Overcast
3:54 AM 28.9 °F 25.2 °F 21.0 °F 72% 30.20 in 10.0 mi SE 3.5 mph - 0.00 in   Overcast
4:54 AM 30.0 °F 24.1 °F 19.0 °F 64% 30.21 in 10.0 mi SW 5.8 mph - N/A   Overcast
5:54 AM 30.0 °F 22.4 °F 19.0 °F 64% 30.19 in 10.0 mi South 8.1 mph - N/A   Overcast
6:54 AM 30.0 °F 23.2 °F 19.0 °F 64% 30.20 in 10.0 mi SSW 6.9 mph - N/A   Overcast
7:54 AM 30.0 °F 22.4 °F 19.9 °F 66% 30.21 in 10.0 mi SSW 8.1 mph - N/A   Mostly Cloudy
8:54 AM 30.9 °F 22.2 °F 19.9 °F 64% 30.22 in 10.0 mi SW 10.4 mph - N/A   Overcast
9:54 AM 32.0 °F 23.6 °F 21.0 °F 64% 30.24 in 10.0 mi SW 10.4 mph - N/A   Overcast
10:54 AM 33.1 °F 24.9 °F 21.0 °F 61% 30.25 in 10.0 mi SSW 10.4 mph - N/A   Overcast
12:54 PM 36.0 °F 28.5 °F 21.9 °F 57% 30.22 in 10.0 mi SW 10.4 mph - N/A   Mostly Cloudy
1:54 PM 37.9 °F 30.9 °F 23.0 °F 55% 30.20 in 10.0 mi SW 10.4 mph - N/A   Clear
2:54 PM 39.0 °F 31.4 °F 23.0 °F 53% 30.21 in 10.0 mi SW 12.7 mph - N/A   Mostly Cloudy
3:54 PM 39.0 °F 32.8 °F 23.0 °F 53% 30.22 in 10.0 mi SW 9.2 mph - N/A   Overcast
4:54 PM 39.0 °F 33.4 °F 23.0 °F 53% 30.23 in 10.0 mi WSW 8.1 mph - N/A   Overcast
5:54 PM 37.9 °F 32.7 °F 24.1 °F 57% 30.25 in 10.0 mi WSW 6.9 mph - N/A   Overcast
6:54 PM 37.9 °F 34.4 °F 24.1 °F 57% 30.26 in 10.0 mi WSW 4.6 mph - N/A   Overcast
7:54 PM 35.1 °F 30.1 °F 24.1 °F 64% 30.27 in 10.0 mi SW 5.8 mph - N/A   Partly Cloudy
8:54 PM 33.1 °F 28.7 °F 23.0 °F 66% 30.28 in 10.0 mi WSW 4.6 mph - N/A   Partly Cloudy
9:54 PM 33.1 °F 30.0 °F 23.0 °F 66% 30.29 in 10.0 mi WSW 3.5 mph - N/A   Clear
10:54 PM 30.9 °F 25.2 °F 21.9 °F 69% 30.27 in 10.0 mi WSW 5.8 mph - N/A   Partly Cloudy
11:54 PM 33.1 °F 26.1 °F 21.9 °F 64% 30.27 in 10.0 mi SW 8.1 mph - N/A   Clear